Wind_Speed
8 7 6 5 3 2 2 1 1 1 2 2 3 4 5 6 6 7 8 8 9 10 11 12 12 12 12 12 12 12 12 12 12 11 10 10 9 9 9 8 8 8 8 8 8 8 8 8 8
8 7 6 4 3 2 3 3 2 2 3 4 5 6 7 7 7 8 9 10 11 11 12 14 14 14 13 13 13 13 13 13 13 12 11 10 10 10 10 9 9 10 10 10 10 9 9 9 9
8 6 5 4 4 5 4 3 3 4 5 6 7 8 9 9 9 10 11 12 12 13 15 15 15 15 15 15 15 14 14 14 13 13 12 11 11 11 11 11 11 11 11 11 11 11 10 10 10
8 7 6 5 6 6 5 4 4 6 7 7 8 9 10 10 11 12 12 13 14 14 16 17 16 16 15 16 16 16 15 15 14 14 14 13 13 13 12 12 12 12 12 12 12 12 11 11 11
8 7 6 6 7 7 6 5 6 7 8 9 10 11 12 12 13 14 14 14 15 16 17 17 17 16 16 16 17 17 17 16 16 16 15 15 15 14 14 14 14 14 13 13 13 13 13 12 12
7 6 7 7 8 8 7 7 8 10 10 11 12 13 13 14 15 15 15 16 17 18 18 17 17 16 16 17 17 16 16 17 17 17 17 17 16 16 16 16 16 15 15 15 15 14 14 14 14
7 6 7 7 8 8 9 9 10 11 11 13 14 14 15 15 16 16 17 18 19 19 19 18 17 17 17 17 17 18 18 18 18 18 18 18 18 18 17 17 17 17 17 16 16 16 16 15 15
6 6 7 7 8 10 10 11 12 13 14 15 15 16 16 16 17 17 18 18 19 20 19 18 17 18 18 18 18 19 19 19 19 19 19 19 19 19 19 18 18 19 19 18 18 18 17 16 17
6 6 7 8 9 11 12 12 13 14 16 16 16 18 18 18 18 19 19 19 20 20 19 19 19 19 19 19 19 20 20 20 20 21 21 20 20 20 20 19 19 20 20 20 20 20 19 19 18
7 7 9 9 10 11 13 13 14 15 17 17 17 19 19 19 19 19 20 20 20 20 20 20 20 20 20 20 20 21 21 22 22 22 22 22 22 21 21 21 21 21 22 22 22 22 21 21 20
8 9 9 11 12 12 13 14 15 16 17 18 19 19 19 20 20 20 20 20 20 20 20 20 21 21 21 21 21 22 22 23 23 24 23 23 23 23 23 23 23 23 24 24 24 23 22 21 21
9 9 10 12 12 13 15 16 16 17 18 19 20 20 20 21 21 21 20 20 21 21 21 22 22 22 22 22 22 23 23 23 23 23 24 24 24 24 24 24 24 24 25 25 25 24 23 23 22
10 11 12 13 14 15 16 17 17 18 19 19 20 20 20 21 22 22 22 22 22 23 23 23 23 23 22 22 23 23 23 24 24 24 24 25 26 26 26 26 26 26 26 26 25 25 24 24 24
11 12 13 14 15 17 18 18 19 19 20 20 20 20 20 21 22 22 22 22 23 23 23 23 24 23 23 23 23 24 24 25 25 26 26 26 26 26 26 27 27 27 26 26 26 26 26 26 26
12 13 14 16 17 18 19 19 20 21 21 21 21 21 21 22 23 23 23 23 24 23 24 24 24 24 24 24 25 25 25 25 26 27 27 27 27 27 27 27 27 27 27 28 27 27 27 27 27
13 13 15 16 17 18 19 20 21 22 22 22 22 22 22 22 23 23 24 24 25 24 24 25 25 25 26 26 26 27 27 27 27 27 27 28 29 29 29 29 28 28 28 29 29 29 29 28 28
13 14 15 17 18 20 21 22 23 23 23 23 22 22 23 23 23 24 24 25 25 25 25 26 26 26 27 27 27 27 28 28 27 28 29 29 30 30 30 30 30 30 30 30 30 30 29 28 28
14 15 17 18 20 21 22 22 23 24 24 24 23 23 23 23 24 25 25 25 25 25 25 26 27 27 27 27 28 27 28 28 28 29 29 29 30 30 30 30 30 30 31 31 31 31 30 29 29
16 17 18 19 21 21 22 22 23 24 23 24 25 25 24 25 25 26 26 25 25 26 26 27 27 27 27 27 28 28 29 28 29 30 29 29 29 30 29 30 30 30 30 31 32 32 31 30 30
17 18 19 21 21 22 22 22 23 23 24 24 24 24 25 25 25 26 25 25 25 26 26 26 27 27 28 28 29 29 29 29 30 30 29 30 29 28 29 29 30 31 30 31 31 31 31 31 31
18 19 20 21 22 22 23 23 23 24 25 25 24 24 24 24 24 25 25 25 25 26 26 26 27 27 28 29 29 30 29 30 29 30 31 29 29 28 29 29 30 30 30 30 30 30 31 30 31
19 20 20 20 20 21 22 22 23 23 24 24 24 24 24 24 25 25 25 25 25 26 27 27 27 27 28 29 30 31 30 29 29 30 30 29 28 28 28 28 29 29 30 30 30 30 30 30 30
19 20 20 20 21 21 22 22 23 23 23 24 24 24 24 25 25 25 26 25 25 25 26 26 27 28 29 29 29 30 29 29 28 29 28 28 27 27 27 27 28 28 29 29 29 29 29 30 30
20 20 21 21 21 22 22 22 23 24 25 24 24 25 25 25 25 25 26 26 26 26 27 27 28 28 29 29 29 29 28 28 27 27 26 26 26 26 26 26 27 27 28 28 28 29 29 30 30
21 21 21 21 21 22 23 24 24 26 26 25 25 25 26 25 25 26 26 27 27 27 28 28 28 29 29 28 28 27 27 26 26 26 25 25 25 26 25 25 26 26 25 25 26 26 27 28 28
22 22 22 23 24 25 25 24 24 26 26 25 26 26 27 26 26 26 26 26 27 27 27 27 28 27 27 27 27 27 26 25 25 25 24 24 24 24 23 24 23 24 24 24 25 26 26 26 27
23 24 24 25 26 26 25 25 24 26 27 27 26 26 27 27 26 25 25 25 26 26 26 26 26 26 27 26 26 25 23 23 23 23 23 23 23 22 22 23 22 22 22 22 22 23 24 24 25
25 26 26 26 26 26 26 26 27 28 29 28 27 27 27 27 26 25 25 25 25 24 24 25 25 25 25 24 24 23 22 21 22 22 21 21 21 21 21 21 22 22 21 21 22 23 23 23 23
26 27 27 27 26 26 27 27 27 28 28 29 28 27 27 27 27 26 25 26 25 24 24 24 24 25 24 24 24 22 21 21 20 20 19 19 20 20 20 20 20 20 19 19 20 20 20 20 21
27 27 27 27 27 27 27 30 29 29 29 29 28 27 26 26 26 26 26 26 25 24 23 23 23 23 23 23 22 21 20 20 19 18 17 17 17 18 18 18 18 18 17 17 16 17 18 19 19
Wind_Direction
177 173 171 166 160 145 186 235 279 324 342 358 1 358 351 344 344 341 338 336 336 330 325 322 319 317 316 313 310 308 307 307 306 305 306 306 305 303 302 299 298 295 294 294 294 294 293 293 291
182 181 182 180 167 196 241 256 278 307 316 327 335 337 336 330 333 333 332 330 328 324 318 316 313 310 309 308 305 302 302 302 302 301 301 300 300 299 298 295 293 291 290 289 288 288 288 289 288
193 188 190 194 200 203 235 256 284 307 315 323 326 325 326 323 325 327 325 324 323 322 319 315 310 306 304 303 301 299 298 297 297 298 297 296 294 294 293 292 290 289 289 287 286 286 285 287 286
198 196 203 210 226 238 249 265 288 301 316 319 320 318 318 319 321 323 322 322 322 323 322 314 308 303 301 299 298 296 295 294 293 294 294 293 290 290 289 289 289 288 288 286 284 283 283 284 285
200 203 211 224 242 254 266 275 287 297 310 315 314 313 314 317 317 320 321 320 319 320 320 316 305 301 299 297 295 292 293 291 290 290 289 289 288 287 287 287 286 285 285 283 281 278 280 281 282
202 206 219 233 250 263 273 281 291 295 301 308 310 312 312 314 316 319 318 320 318 317 316 313 305 302 299 296 293 291 292 290 288 288 286 286 286 286 285 284 283 282 282 281 278 276 278 278 278
200 207 224 238 254 268 277 283 289 296 302 304 307 313 315 313 313 314 317 319 319 317 315 311 305 302 300 295 292 291 291 289 287 285 284 284 284 283 283 283 282 281 281 280 278 275 275 277 276
212 220 234 251 266 277 285 285 286 291 297 300 305 311 311 311 310 312 314 316 317 316 314 310 303 299 297 295 292 289 288 287 286 284 283 282 282 281 281 282 281 280 279 278 277 274 274 274 274
227 237 248 259 269 276 283 285 288 292 296 299 304 307 308 308 308 309 311 312 313 313 311 307 303 299 297 295 293 291 288 287 284 282 282 282 281 280 279 280 281 281 278 277 277 274 272 272 272
235 240 250 261 269 276 282 285 290 293 295 301 304 305 305 305 306 307 308 309 311 310 307 303 300 299 297 296 294 293 289 287 284 282 281 280 280 279 278 277 279 279 278 278 277 275 273 270 270
241 246 257 263 271 278 283 285 289 295 295 297 300 301 302 303 303 304 306 306 306 306 303 300 299 297 296 294 296 295 290 286 284 280 281 279 279 279 278 277 277 278 278 277 275 276 273 271 270
249 255 261 265 276 282 285 289 292 296 298 298 299 300 300 300 300 300 301 301 302 302 300 298 298 295 294 292 294 293 291 287 283 282 282 279 280 282 282 279 278 278 278 276 273 273 274 272 270
256 263 269 273 280 284 288 291 295 297 298 299 299 298 297 299 299 298 298 298 299 300 297 294 294 293 292 292 292 291 291 288 285 285 282 280 280 281 282 283 279 278 277 276 274 273 274 273 271
265 271 276 280 284 286 289 294 297 298 299 300 299 299 298 299 298 297 296 295 296 295 294 293 293 293 293 292 291 290 289 289 285 282 282 282 281 280 282 282 279 278 276 275 274 273 272 272 271
273 278 281 283 287 290 294 297 300 299 300 300 300 299 297 298 297 296 295 295 296 294 293 293 293 292 292 290 290 288 287 289 287 284 281 282 281 280 280 279 278 277 275 274 273 271 270 270 271
279 283 284 286 289 292 296 298 299 299 299 300 300 299 298 297 296 295 294 295 294 293 293 293 291 291 291 290 290 288 286 285 286 285 282 282 281 279 278 277 277 274 274 273 271 271 269 269 271
283 286 287 289 290 291 294 297 300 298 297 299 301 300 298 296 295 294 294 294 293 292 291 292 291 290 290 288 287 286 286 286 287 286 284 285 282 280 279 277 274 273 272 272 271 270 269 269 270
282 286 289 290 291 292 295 297 299 299 298 299 299 299 298 296 295 294 294 293 292 290 290 290 290 290 291 290 288 289 288 288 288 288 285 285 285 283 281 277 273 272 271 271 270 269 270 268 269
281 286 289 292 294 296 297 297 298 299 299 299 300 299 297 297 295 294 295 291 288 288 288 288 289 290 291 292 292 291 291 290 289 288 287 287 287 284 281 277 275 274 273 270 269 269 269 268 269
285 288 289 290 293 296 297 297 298 299 299 299 300 300 299 297 297 296 293 290 286 287 288 288 289 290 291 292 292 291 289 291 292 289 288 288 286 283 279 277 276 274 272 271 269 269 269 268 268
290 289 290 293 295 297 299 301 300 300 299 298 299 299 298 298 299 298 296 292 289 289 289 289 290 292 293 294 294 293 292 292 291 290 288 288 287 285 282 278 277 276 274 271 270 268 268 268 268
296 296 297 298 299 302 301 302 303 301 301 300 300 300 299 297 297 296 296 295 292 291 289 290 291 293 293 296 295 295 293 292 290 289 288 289 290 286 284 279 277 276 273 270 267 267 267 266 267
298 299 300 300 301 302 303 303 302 302 302 302 301 301 301 298 296 295 295 295 294 293 293 293 292 294 296 297 298 296 295 294 290 290 290 289 289 288 285 280 278 275 272 270 268 268 267 265 266
302 303 303 304 305 304 303 302 302 302 303 302 302 302 302 301 298 297 296 296 294 293 293 294 294 295 296 296 297 296 296 295 293 293 291 289 289 289 288 283 280 278 274 271 269 268 267 265 267
304 306 307 306 305 302 301 300 299 300 302 302 302 302 303 302 301 299 298 297 295 293 293 293 294 295 296 297 297 297 297 295 293 292 291 290 290 290 288 287 283 282 277 270 267 267 267 265 265
303 305 304 302 302 302 303 302 302 301 302 302 303 304 304 304 303 300 300 299 297 295 294 294 295 296 297 298 298 298 295 294 293 292 291 293 291 291 289 288 285 282 279 271 267 267 266 265 266
304 304 302 303 303 303 303 303 302 301 301 302 302 303 303 303 302 301 301 300 298 297 295 296 296 296 297 299 300 299 297 296 295 294 293 293 292 292 292 291 288 285 281 275 269 270 266 266 266
304 304 304 305 304 303 302 304 305 305 304 303 303 303 303 302 302 301 300 300 298 297 297 298 298 298 298 300 301 301 298 297 297 297 296 295 293 293 294 294 291 289 284 278 273 270 267 267 267
306 305 304 303 301 301 301 301 302 304 304 304 304 303 304 301 301 300 300 300 298 295 296 297 298 298 297 299 303 301 299 298 299 300 299 298 295 296 296 296 296 292 288 281 276 271 271 271 271
304 305 305 303 302 300 300 300 302 302 303 303 303 304 304 303 301 300 300 299 297 295 297 298 299 299 300 301 304 303 298 298 298 299 302 302 301 301 301 300 296 293 288 284 278 278 278 275 275
Height
5909 5911 5912 5914 5916 5918 5918 5917 5917 5916 5916 5915 5915 5914 5913 5913 5912 5913 5910 5907 5906 5904 5903 5902 5901 5900 5899 5898 5897 5896 5895 5893 5892 5891 5890 5889 5888 5887 5886 5885 5885 5884 5883 5883 5882 5882 5881 5880 5880
5909 5910 5912 5914 5916 5918 5917 5916 5916 5916 5915 5914 5914 5913 5912 5911 5909 5908 5907 5905 5904 5903 5901 5900 5899 5898 5897 5896 5895 5894 5893 5891 5890 5889 5888 5887 5886 5885 5884 5883 5882 5882 5881 5881 5880 5880 5879 5878 5878
5908 5910 5912 5913 5915 5916 5916 5915 5915 5914 5914 5913 5912 5912 5911 5910 5908 5907 5906 5904 5902 5901 5899 5898 5896 5895 5894 5893 5892 5891 5890 5889 5888 5887 5885 5884 5883 5882 5882 5881 5880 5880 5879 5878 5878 5877 5877 5876 5876
5908 5910 5912 5913 5914 5914 5914 5914 5913 5913 5912 5912 5911 5910 5909 5908 5907 5906 5904 5902 5900 5899 5897 5895 5894 5892 5891 5890 5889 5888 5887 5886 5885 5884 5883 5882 5881 5880 5879 5878 5878 5877 5877 5876 5875 5875 5874 5874 5873
5907 5909 5911 5912 5912 5912 5912 5912 5912 5912 5911 5910 5910 5909 5907 5906 5905 5903 5902 5900 5898 5896 5894 5892 5891 5889 5888 5887 5885 5885 5884 5883 5882 5880 5879 5878 5878 5877 5876 5875 5875 5874 5874 5873 5872 5872 5871 5871 5870
5907 5909 5911 5911 5911 5911 5911 5911 5911 5910 5909 5909 5908 5906 5905 5904 5903 5901 5900 5898 5896 5894 5891 5889 5888 5886 5885 5884 5882 5881 5880 5879 5878 5877 5876 5875 5874 5873 5873 5872 5871 5871 5870 5870 5869 5869 5868 5868 5867
5907 5908 5909 5910 5910 5910 5910 5909 5909 5909 5908 5907 5906 5905 5903 5902 5901 5899 5897 5895 5893 5891 5889 5886 5885 5883 5882 5880 5879 5878 5877 5875 5874 5873 5872 5871 5871 5870 5869 5868 5868 5867 5867 5866 5865 5865 5864 5864 5864
5905 5908 5908 5908 5908 5908 5908 5907 5907 5906 5905 5904 5904 5902 5901 5899 5898 5896 5894 5892 5890 5888 5886 5883 5882 5880 5879 5877 5875 5874 5873 5871 5870 5869 5868 5867 5866 5865 5865 5864 5864 5863 5862 5862 5861 5861 5861 5860 5860
5904 5908 5907 5907 5907 5907 5906 5905 5905 5904 5903 5902 5901 5900 5898 5897 5895 5893 5892 5890 5887 5885 5883 5880 5878 5877 5875 5873 5872 5870 5869 5867 5866 5865 5864 5862 5862 5861 5860 5860 5859 5859 5858 5857 5857 5856 5856 5855 5855
5904 5905 5905 5905 5905 5904 5904 5903 5902 5901 5900 5899 5897 5896 5895 5893 5892 5890 5888 5887 5884 5882 5880 5877 5875 5873 5871 5869 5867 5866 5864 5862 5861 5860 5859 5858 5857 5856 5855 5855 5854 5854 5853 5852 5852 5851 5851 5850 5850
5902 5903 5903 5903 5902 5902 5901 5900 5899 5898 5897 5896 5895 5894 5892 5890 5889 5887 5885 5883 5881 5879 5876 5874 5872 5869 5867 5865 5863 5862 5860 5858 5856 5855 5854 5853 5852 5851 5850 5850 5849 5848 5848 5847 5847 5846 5846 5845 5845
5900 5901 5901 5901 5900 5900 5899 5898 5896 5895 5894 5893 5891 5890 5889 5887 5885 5883 5881 5879 5877 5875 5873 5870 5868 5866 5864 5861 5859 5857 5855 5853 5852 5851 5849 5848 5847 5846 5845 5844 5844 5843 5842 5841 5841 5841 5840 5840 5840
5899 5899 5899 5898 5898 5897 5896 5895 5894 5892 5891 5889 5887 5886 5884 5883 5881 5879 5877 5875 5873 5871 5868 5866 5864 5862 5859 5857 5855 5853 5851 5849 5847 5846 5844 5843 5842 5841 5840 5839 5838 5837 5837 5836 5836 5835 5835 5834 5834
5897 5897 5896 5896 5895 5894 5893 5892 5890 5889 5887 5885 5883 5882 5880 5878 5876 5874 5872 5870 5868 5866 5863 5861 5859 5857 5855 5852 5850 5848 5846 5843 5841 5840 5839 5837 5836 5835 5834 5833 5832 5831 5830 5830 5830 5829 5829 5828 5828
5895 5895 5894 5893 5892 5891 5890 5888 5887 5884 5883 5881 5879 5877 5876 5874 5871 5869 5867 5865 5863 5861 5858 5856 5854 5852 5849 5847 5844 5842 5840 5838 5836 5834 5833 5831 5830 5829 5828 5827 5826 5825 5824 5824 5823 5822 5822 5822 5821
5893 5893 5893 5891 5889 5887 5888 5885 5883 5880 5878 5877 5875 5873 5871 5869 5867 5864 5862 5860 5858 5855 5853 5851 5849 5847 5844 5841 5839 5837 5835 5832 5830 5828 5826 5825 5823 5822 5821 5820 5819 5818 5818 5817 5816 5816 5815 5815 5814
5891 5891 5890 5888 5886 5884 5883 5881 5879 5876 5874 5872 5870 5868 5866 5864 5861 5859 5857 5854 5852 5850 5848 5846 5843 5841 5838 5836 5833 5831 5829 5826 5824 5822 5820 5819 5816 5815 5814 5813 5812 5811 5810 5810 5809 5809 5808 5808 5808
5889 5888 5886 5884 5882 5880 5878 5876 5874 5871 5869 5867 5865 5863 5860 5858 5856 5853 5851 5848 5846 5844 5842 5840 5837 5835 5832 5829 5827 5825 5823 5820 5818 5815 5813 5812 5809 5807 5806 5805 5804 5803 5803 5802 5802 5801 5801 5801 5801
5885 5884 5882 5880 5878 5876 5874 5872 5870 5867 5864 5862 5860 5857 5855 5852 5850 5847 5845 5842 5840 5838 5836 5834 5831 5829 5826 5824 5821 5818 5815 5813 5811 5809 5807 5805 5802 5800 5799 5797 5797 5796 5795 5795 5794 5794 5793 5793 5793
5881 5880 5878 5876 5873 5871 5869 5867 5865 5862 5860 5857 5854 5851 5849 5846 5843 5841 5838 5836 5834 5832 5830 5828 5825 5822 5820 5817 5814 5811 5809 5806 5804 5802 5801 5798 5795 5793 5791 5790 5789 5788 5787 5787 5786 5786 5786 5786 5785
5877 5876 5873 5871 5869 5867 5864 5863 5860 5857 5854 5852 5849 5846 5843 5840 5838 5835 5832 5830 5828 5826 5824 5821 5819 5816 5814 5810 5807 5805 5801 5799 5797 5795 5793 5791 5788 5786 5784 5783 5781 5780 5779 5779 5779 5778 5778 5777 5777
5873 5871 5869 5867 5865 5863 5861 5859 5856 5852 5849 5846 5843 5840 5838 5835 5832 5830 5827 5824 5822 5820 5817 5815 5813 5810 5807 5804 5801 5798 5795 5792 5790 5787 5785 5783 5781 5779 5777 5775 5773 5772 5771 5771 5770 5770 5770 5769 5769
5869 5867 5864 5862 5860 5858 5856 5854 5852 5847 5844 5841 5838 5835 5832 5830 5827 5824 5821 5819 5816 5813 5811 5808 5806 5804 5801 5797 5794 5791 5788 5785 5783 5780 5778 5776 5774 5771 5769 5767 5766 5765 5763 5763 5762 5761 5761 5761 5761
5864 5862 5860 5858 5856 5854 5851 5849 5846 5841 5838 5835 5832 5830 5827 5824 5821 5818 5815 5812 5810 5807 5805 5802 5800 5797 5794 5791 5788 5785 5782 5778 5776 5773 5771 5769 5767 5764 5761 5760 5758 5757 5755 5754 5754 5754 5754 5753 5753
5860 5858 5856 5855 5853 5850 5846 5842 5840 5835 5832 5829 5827 5824 5821 5818 5815 5812 5809 5806 5803 5801 5798 5796 5793 5790 5787 5784 5781 5778 5775 5772 5769 5767 5765 5762 5760 5757 5755 5753 5751 5749 5748 5747 5746 5746 5746 5746 5746
5855 5853 5851 5849 5847 5844 5840 5837 5834 5829 5826 5823 5820 5817 5814 5811 5808 5805 5802 5799 5796 5794 5791 5789 5786 5783 5780 5778 5775 5772 5769 5766 5763 5761 5758 5756 5754 5751 5748 5746 5744 5743 5741 5739 5739 5739 5739 5738 5738
5849 5847 5844 5841 5838 5836 5834 5831 5828 5823 5819 5817 5814 5811 5808 5804 5801 5798 5795 5792 5790 5787 5784 5781 5779 5777 5774 5771 5768 5765 5763 5760 5757 5755 5752 5750 5748 5745 5743 5740 5738 5736 5734 5733 5732 5732 5732 5732 5731
5844 5840 5838 5835 5832 5829 5828 5825 5822 5817 5813 5810 5808 5805 5802 5798 5795 5792 5789 5786 5783 5781 5778 5775 5773 5770 5768 5764 5762 5759 5757 5754 5751 5749 5747 5744 5742 5739 5737 5735 5733 5731 5729 5728 5727 5727 5727 5726 5725
5837 5834 5831 5828 5825 5822 5820 5820 5815 5810 5807 5804 5801 5798 5795 5792 5789 5786 5783 5780 5777 5775 5772 5770 5767 5765 5762 5759 5756 5753 5751 5749 5746 5744 5742 5739 5736 5734 5732 5730 5727 5725 5724 5723 5722 5721 5721 5720 5719
5830 5827 5824 5821 5818 5815 5812 5813 5807 5804 5800 5797 5794 5791 5789 5786 5783 5780 5777 5774 5771 5769 5766 5764 5762 5759 5757 5754 5751 5748 5746 5743 5741 5739 5737 5734 5732 5729 5727 5725 5722 5721 5719 5718 5717 5716 5716 5715 5714